Flag for South Korea Weather past 2 weeks in Daegu, South Korea

Now
43 °F

Clear.


Feels Like: 41 °F
Forecast: 39 / 71 °F
Wind: 3 mph from Southeast

Location: Taegu Ab

Current Time: Mar 30, 2015 at 6:51:49 AM

Latest Report: Mar 30, 2015 at 6:00 AM


Visibility: 5 mi

Pressure: 30.07 "Hg

Humidity: 81%

Dew point: 37 °F

Location of DaeguLocation

Historic Weather in Daegu — Graph

°F

Daegu temperature yesterday

Maximum temperature yesterday: 68 °F (at 3:00 PM)
Minimum temperature yesterday: 48 °F (at 4:55 AM)
Average temperature yesterday: 58 °F

Past Weeks' High & Low Weather Summary

 TemperatureHumidityPressure
High72 °F (Mar 17, 3:00 PM)94% (Mar 18, 9:00 AM)30.57 "Hg (Mar 18, 9:00 AM)
Low32 °F (Mar 15, 6:00 AM)6% (Mar 22, 8:00 PM)29.77 "Hg (Mar 18, 4:00 PM)
Average52 °F47%30.13 "Hg
* Reported Mar 15 5:00 AM — Mar 30 4:55 AM, Daegu, Weather by CustomWeather, © 2015

Note: Actual official high and low records may vary slightly from our data, if they occured in-between our weather recording intervals... More about our weather records

Advertising

Daegu weather history for previous 24 hours

 ConditionsComfort  
Time TempWeatherWind HumidityBarometerVisibility
4:55 AM
Mon, Mar 30
45 °FFog.2 mph81%30.09 "Hg5 mi
3:55 AM45 °FClear.1 mph76%30.08 "HgN/A
2:55 AM46 °FClear.5 mph76%30.09 "HgN/A
1:55 AM48 °FClear.6 mph71%30.08 "HgN/A
12:55 AM50 °FClear.3 mph67%30.08 "HgN/A
11:55 PM
Sun, Mar 29
50 °FClear.5 mph67%30.09 "HgN/A
10:55 PM54 °FClear.7 mph58%30.07 "HgN/A
10:00 PM57 °FClear.7 mph48%30.04 "Hg10 mi
9:00 PM59 °FClear.2 mph45%30.04 "Hg10 mi
8:00 PM57 °FClear.6 mph48%30.01 "Hg6 mi
7:00 PM64 °FClear.3 mph34%29.98 "Hg6 mi
6:00 PM66 °FClear.5 mph32%29.95 "Hg5 mi
5:00 PM68 °FClear.7 mph30%29.95 "Hg5 mi
4:00 PM68 °FClear.8 mph30%29.95 "Hg6 mi
3:00 PM68 °FSunny.6 mph33%29.95 "Hg10 mi
2:00 PM64 °FSunny.7 mph37%29.98 "Hg10 mi
1:00 PM63 °FPassing clouds.10 mph39%29.98 "HgN/A
12:00 PM61 °FPassing clouds.8 mph42%30.01 "HgN/A
11:00 AM59 °FPassing clouds.7 mph45%30.04 "HgN/A
10:00 AM57 °FPartly sunny.7 mph44%30.01 "HgN/A
9:00 AM54 °FPartly sunny.3 mph47%30.01 "HgN/A
8:00 AM50 °FPassing clouds.2 mph58%30.01 "HgN/A
7:00 AM48 °FPassing clouds.1 mph62%29.98 "HgN/A
6:00 AM48 °FPassing clouds.5 mph62%29.98 "HgN/A
Weather by CustomWeather, © 2015

See weather overviewHow to use our weather pages